{"data":{"norad_id":64474,"epoch":"2026-09-20T09:01:18.026976Z","epoch_age_seconds":141907,"freshness":"FRESH","line1":"1 64474U 25133C   26263.37590309  .00009941  00000+0  30494-3 0  9999","line2":"2 64474  53.1577 290.5279 0001321  79.2544 280.8607 15.34402978 71009","mean_motion":15.34402978,"eccentricity":0.0001321,"inclination_deg":53.1577,"raan_deg":290.5279,"arg_perigee_deg":79.2544,"mean_anomaly_deg":280.8607,"bstar":0.00030494,"rev_number":7100,"period_min":93.847575939728,"perigee_km":461.79071515135,"apogee_km":463.59806280432,"semimajor_km":6840.8313889778,"source":"CELESTRAK","updated_at":"2026-09-21T09:00:35.358442Z"}}